    Orbital elements:
    2023 QP                                                  Earth MOID = 0.0945 AU
    Epoch 2023 Sept. 13.0 TT = JDT 2460200.5                Veres                   
    M 343.77930              (2000.0)            P               Q                  
    n   0.52005512     Peri.   62.22470     +0.83407643     -0.50729703             
    a   1.5314511      Node   326.88034     +0.25091406     +0.69873686             
    e   0.3708094      Incl.   23.36796     +0.49128266     +0.50439719             
    P   1.90           H   23.49          G   0.15           U   9                  
    Residuals in seconds of arc
    230818 F51  0.1+  0.3-    230819 L01  0.3-  0.2-    230819 M49  0.0   0.1-
    230818 F51  0.2+  0.3-    230819 I93  0.2+  0.2+    230819 M49  0.5+  0.5-
    230818 F51  0.1+  0.2-    230819 204  0.3-  0.3+    230819 H21  0.3-  0.5+
    230818 F51  0.3-  1.4+    230819 033  0.0   0.4-    230819 H21  0.3-  0.6+
    230818 F52  0.1+  0.3-    230819 033  0.0   0.3-    230819 H21  0.0   0.5+
    230818 F52  0.1+  0.3-    230819 033  0.1+  0.3-    230819 H21  0.4-  0.7+
    230818 F52  0.2+  0.3-    230819 K83  0.3+  0.8-    230819 H21  0.3-  0.5+
    230818 F52  0.2+  0.4-    230819 K83  0.7-  0.7-    230819 654  0.1+  0.1+
    230818 F52  0.1+  0.4-    230819 L34  0.2+  0.3+    230819 654  0.1+  0.0
    230818 F52  0.2+  0.5-    230819 K83  0.3-  0.6-    230819 654  0.2+  0.1+
    230818 104  0.2-  0.3+    230819 595  0.0   0.9-    230819 H36  0.3-  0.2+
    230818 104  0.7-  0.0     230819 595  0.2-  0.1-    230819 654  0.2+  0.0
    230818 104  0.1-  0.6-    230819 C95  0.2-  0.0     230819 H36  0.0   0.1-
    230818 M45  0.2+  0.6-    230819 K87  0.2+  0.2-    230819 H36  0.7-  0.7-
    230819 204  0.3+  0.1-    230819 595  0.7+  0.4+    230819 246  0.3-  2.0+
    230819 I93  0.0   0.0     230819 C95  0.2-  0.1+    230819 246  0.1-  1.6+
    230819 L01  0.0   0.1-    230819 K87  0.0   0.0     230819 246  0.4-  1.3+
    230819 M45  0.0   0.4-    230819 L34  0.3+  0.1-    230819 246  0.5+  2.1+
    230819 I93  0.1+  0.1-    230819 C95  0.0   0.1-    230819 246  0.4-  1.5+
    230819 L01  0.3+  0.2-    230819 033  0.1-  0.2-    230819 246  0.4+  3.3+
    230819 L01  0.7-  0.1-    230819 033  0.1-  0.3-    230819 246  0.1-  1.9+
    230819 204  0.0   0.1+    230819 033  0.0   0.2-
    230819 L01  0.4-  0.1-    230819 M49  0.1+  0.2-
    
    Ephemeris:
    2023 QP                  a,e,i = 1.53, 0.37, 23                  q = 0.9636
    Date    TT    R. A. (2000) Decl.     Delta      r    Elong.  Phase     V
    2023 07 20    23 32 49.3 -39 29 08   0.3639  1.2816   130.2    37.3    23.3
    ...
    2023 08 04    23 32 36.4 -31 26 11   0.2258  1.1998   141.6    31.7    22.0
    ...
    2023 08 12    23 21 52.0 -21 16 26   0.1613  1.1579   151.6    24.6    21.0
    ...
    2023 08 18    23 05 14.1 -06 54 11   0.1220  1.1277   159.8    18.1    20.1
    2023 08 19    23 01 27.2 -03 38 15   0.1167  1.1228   160.2    17.8    20.0
    2023 08 20    22 57 19.0 -00 05 07   0.1120  1.1179   160.0    18.1    19.9
    ...
    2023 08 26    22 23 04.2 +26 17 00   0.09689 1.0897   143.0    33.9    20.0
    ...
    2023 09 03    20 58 00.1 +58 17 55   0.1165  1.0551   110.4    63.7    21.2
    ...
    2023 09 18    16 38 16.6 +72 35 30   0.2082  1.0026    83.4    84.7    23.1
    
    M. P. C. Staff               (C) Copyright 2023 MPC           M.P.E.C. 2023-Q30
    


    Read MPEC 2023-Q29 Read MPEC 2023-Q31


    MPEC number:

    Enter an MPEC number in one of the following forms:

    • 1997-B01 (the full form)
    • J97B01 (the packed version of the full form)
    • B01 (the abbreviated form)